Location: Plainartige
(45.6866°N, 1.7993°E)
Time: 02:23:53
(UTC+00:00)

RS-15 - Pass Details

Date: 01 July 2022
Orbit: 1881 x 2163 km, 64.8° (Epoch: 10 August)

Event Time Altitude Azimuth Distance (km) Brightness Sun altitude
Rises 01:56:27 0° 319° (NW) 5,695 10.7 -16.0°
Reaches altitude 10° 02:01:06 10° 306° (NW) 4,672 10.1 -15.6°
Maximum altitude 02:09:14 21° 263° (W) 3,755 9.2 -14.9°
Enters shadow 02:14:48 15° 230° (SW) 4,145 9.1 -14.4°
